Powrót do katalogu

STARLINK-34874

AktywnyŁącznośćVLEO
NORAD 65335·PAYLOAD·🇺🇸 United States

Wystrzelony Aug 27, 2025 z Cape Canaveral Space Force Station

Loading…

Następne Przeloty (najbliższe 24 godziny)

TLE

ŚwieżeSource: CelesTrak SupGP

Epoka: Sep 14, 2026, 22:52 UTC

1 65335C 25189N   26257.95326389  .00012298  00000+0  36350-3 0  2572
2 65335  53.1586  45.7388 0001228  82.4194 166.2823 15.34371086    15

Śledź STARLINK-34874 w czasie rzeczywistym z AllMySat

Download on the App Store